TimeEDT,TemperatureF,Dew PointF,Humidity,Sea Level PressureIn,VisibilityMPH,Wind Direction,Wind SpeedMPH,Gust SpeedMPH,PrecipitationIn,Events,Conditions,WindDirDegrees,DateUTC
12:15 AM,71.6,62.6,73,29.87,10.0,North,21.9,27.6,N/A,Thunderstorm,Overcast,350,2014-08-20 04:15:00
12:35 AM,68.0,62.6,83,29.88,1.5,SW,15.0,20.7,N/A,Rain-Thunderstorm,Heavy Thunderstorms and Rain,220,2014-08-20 04:35:00
12:55 AM,66.2,62.6,88,29.80,10.0,WSW,6.9,-,N/A,Rain-Thunderstorm,Light Thunderstorms and Rain,240,2014-08-20 04:55:00
1:35 AM,64.4,62.6,94,29.86,10.0,SE,3.5,-,N/A,Thunderstorm,Clear,130,2014-08-20 05:35:00
1:55 AM,64.4,62.6,94,29.86,10.0,Calm,Calm,-,N/A,Thunderstorm,Clear,0,2014-08-20 05:55:00
2:15 AM,64.4,62.6,94,29.86,10.0,Calm,Calm,-,N/A,,Clear,0,2014-08-20 06:15:00
2:35 AM,64.4,62.6,94,29.85,10.0,Calm,Calm,-,N/A,,Clear,0,2014-08-20 06:35:00
2:55 AM,64.4,62.6,94,29.85,7.0,Calm,Calm,-,N/A,,Clear,0,2014-08-20 06:55:00
3:15 AM,64.4,62.6,94,29.84,10.0,Calm,Calm,-,N/A,,Clear,0,2014-08-20 07:15:00
3:35 AM,62.6,60.8,94,29.85,7.0,Calm,Calm,-,N/A,,Clear,0,2014-08-20 07:35:00
3:55 AM,62.6,62.6,100,29.85,7.0,WSW,3.5,-,N/A,,Clear,250,2014-08-20 07:55:00
4:15 AM,64.4,62.6,94,29.86,10.0,SW,3.5,-,N/A,,Clear,230,2014-08-20 08:15:00
4:35 AM,64.4,62.6,94,29.86,7.0,Calm,Calm,-,N/A,,Clear,0,2014-08-20 08:35:00
4:55 AM,64.4,62.6,94,29.87,7.0,Calm,Calm,-,N/A,,Clear,0,2014-08-20 08:55:00
5:15 AM,62.6,60.8,94,29.87,7.0,Calm,Calm,-,N/A,,Scattered Clouds,0,2014-08-20 09:15:00
5:35 AM,66.2,64.4,94,29.88,7.0,Calm,Calm,-,N/A,,Overcast,0,2014-08-20 09:35:00
5:55 AM,66.2,64.4,94,29.88,0.2,Calm,Calm,-,N/A,Fog,Fog,0,2014-08-20 09:55:00
6:15 AM,68.0,66.2,94,29.89,0.2,Calm,Calm,-,N/A,Fog,Fog,0,2014-08-20 10:15:00
6:35 AM,68.0,68.0,100,29.90,0.2,SSW,3.5,-,N/A,Fog,Fog,210,2014-08-20 10:35:00
6:55 AM,68.0,68.0,100,29.90,0.2,SW,3.5,-,N/A,Fog,Fog,220,2014-08-20 10:55:00
7:15 AM,68.0,66.2,94,29.91,0.2,Calm,Calm,-,N/A,Fog,Fog,0,2014-08-20 11:15:00
7:35 AM,68.0,68.0,100,29.91,0.2,SW,3.5,-,N/A,Fog,Fog,220,2014-08-20 11:35:00
7:55 AM,68.0,68.0,100,29.91,0.2,SW,4.6,-,N/A,Fog,Fog,220,2014-08-20 11:55:00
8:15 AM,69.8,68.0,94,29.91,0.2,SSW,3.5,-,N/A,Fog,Fog,210,2014-08-20 12:15:00
8:35 AM,69.8,68.0,94,29.91,0.2,SW,3.5,-,N/A,Fog,Fog,220,2014-08-20 12:35:00
8:55 AM,69.8,68.0,94,29.91,1.0,SSW,4.6,-,N/A,,Overcast,210,2014-08-20 12:55:00
9:15 AM,69.8,68.0,94,29.93,1.8,Calm,Calm,-,N/A,,Overcast,0,2014-08-20 13:15:00
9:35 AM,71.6,71.6,100,29.93,7.0,Calm,Calm,-,N/A,,Mostly Cloudy,0,2014-08-20 13:35:00
9:55 AM,73.4,71.6,94,29.94,7.0,West,3.5,-,N/A,,Scattered Clouds,260,2014-08-20 13:55:00
10:15 AM,75.2,71.6,89,29.95,7.0,West,3.5,-,N/A,,Scattered Clouds,260,2014-08-20 14:15:00
10:35 AM,77.0,71.6,83,29.95,10.0,SSW,6.9,-,N/A,,Scattered Clouds,210,2014-08-20 14:35:00
10:55 AM,78.8,71.6,78,29.95,7.0,West,4.6,-,N/A,,Scattered Clouds,260,2014-08-20 14:55:00
11:15 AM,78.8,71.6,78,29.96,7.0,WSW,5.8,-,N/A,,Clear,240,2014-08-20 15:15:00
11:35 AM,78.8,71.6,78,29.96,7.0,SSW,5.8,-,N/A,,Clear,210,2014-08-20 15:35:00
11:55 AM,80.6,71.6,74,29.97,7.0,WSW,6.9,-,N/A,,Clear,240,2014-08-20 15:55:00
12:15 PM,80.6,69.8,70,29.98,7.0,West,6.9,-,N/A,,Clear,260,2014-08-20 16:15:00
12:35 PM,82.4,69.8,66,29.97,10.0,West,5.8,-,N/A,,Clear,280,2014-08-20 16:35:00
12:55 PM,82.4,68.0,62,29.96,10.0,West,6.9,-,N/A,,Clear,280,2014-08-20 16:55:00
1:15 PM,82.4,69.8,66,29.97,10.0,WSW,6.9,-,N/A,,Clear,250,2014-08-20 17:15:00
1:35 PM,82.4,69.8,66,29.98,10.0,West,5.8,-,N/A,,Scattered Clouds,270,2014-08-20 17:35:00
1:55 PM,80.6,69.8,70,29.99,10.0,West,5.8,-,N/A,Thunderstorm,Mostly Cloudy,280,2014-08-20 17:55:00
2:15 PM,80.6,69.8,70,30.00,10.0,WNW,5.8,-,N/A,Thunderstorm,Mostly Cloudy,290,2014-08-20 18:15:00
2:35 PM,78.8,69.8,74,30.04,1.0,WNW,26.5,35.7,N/A,Rain-Thunderstorm,Heavy Thunderstorms and Rain,300,2014-08-20 18:35:00
2:55 PM,69.8,62.6,78,30.02,10.0,Calm,Calm,-,N/A,Rain-Thunderstorm,Light Thunderstorms and Rain,0,2014-08-20 18:55:00
3:15 PM,71.6,68.0,88,30.01,10.0,WNW,8.1,-,N/A,Rain-Thunderstorm,Light Thunderstorms and Rain,300,2014-08-20 19:15:00
3:35 PM,77.0,69.8,78,29.99,7.0,WNW,9.2,-,N/A,,Scattered Clouds,300,2014-08-20 19:35:00
3:55 PM,77.0,68.0,74,29.97,10.0,WNW,6.9,-,N/A,,Clear,290,2014-08-20 19:55:00
4:15 PM,75.2,68.0,78,29.93,10.0,South,4.6,-,N/A,,Clear,180,2014-08-20 20:15:00
4:55 PM,75.2,68.0,78,29.97,10.0,Calm,Calm,-,N/A,,Clear,0,2014-08-20 20:55:00
5:15 PM,77.0,68.0,74,29.96,10.0,Calm,Calm,-,N/A,,Scattered Clouds,0,2014-08-20 21:15:00
5:35 PM,75.2,68.0,78,29.95,10.0,Calm,Calm,-,N/A,,Scattered Clouds,0,2014-08-20 21:35:00
5:55 PM,77.0,68.0,74,29.93,10.0,Calm,Calm,-,N/A,,Clear,0,2014-08-20 21:55:00
6:15 PM,77.0,66.2,69,29.94,10.0,Calm,Calm,-,N/A,,Clear,0,2014-08-20 22:15:00
6:35 PM,78.8,68.0,69,29.94,10.0,Calm,Calm,-,N/A,,Clear,0,2014-08-20 22:35:00
6:55 PM,78.8,68.0,69,29.95,10.0,SSW,3.5,-,N/A,,Clear,210,2014-08-20 22:55:00
7:15 PM,77.0,68.0,74,29.95,10.0,SSW,3.5,-,N/A,,Clear,200,2014-08-20 23:15:00
7:35 PM,77.0,68.0,74,29.95,10.0,SSW,4.6,-,N/A,,Clear,210,2014-08-20 23:35:00
7:55 PM,73.4,68.0,83,29.96,10.0,SSW,5.8,-,N/A,,Clear,200,2014-08-20 23:55:00
8:15 PM,73.4,69.8,88,29.96,10.0,South,5.8,-,N/A,,Clear,190,2014-08-21 00:15:00
8:35 PM,73.4,68.0,83,29.97,10.0,SW,3.5,-,N/A,,Clear,220,2014-08-21 00:35:00
8:55 PM,73.4,68.0,83,29.99,10.0,Calm,Calm,-,N/A,,Clear,0,2014-08-21 00:55:00
9:15 PM,73.4,68.0,83,30.00,10.0,Calm,Calm,-,N/A,,Clear,0,2014-08-21 01:15:00
9:35 PM,71.6,68.0,88,30.01,10.0,Calm,Calm,-,N/A,,Clear,0,2014-08-21 01:35:00
9:55 PM,71.6,68.0,88,30.01,10.0,Calm,Calm,-,N/A,,Clear,0,2014-08-21 01:55:00
10:15 PM,71.6,68.0,88,30.01,10.0,South,4.6,-,N/A,,Clear,180,2014-08-21 02:15:00
10:35 PM,71.6,69.8,94,30.03,10.0,Calm,Calm,-,N/A,,Scattered Clouds,0,2014-08-21 02:35:00
10:55 PM,71.6,69.8,94,30.04,10.0,SSW,4.6,-,N/A,,Mostly Cloudy,200,2014-08-21 02:55:00
11:15 PM,71.6,68.0,88,30.04,10.0,Calm,Calm,-,N/A,,Scattered Clouds,0,2014-08-21 03:15:00
11:35 PM,69.8,68.0,94,30.04,7.0,Calm,Calm,-,N/A,,Scattered Clouds,0,2014-08-21 03:35:00
11:55 PM,71.6,68.0,88,30.04,10.0,SW,3.5,-,N/A,,Mostly Cloudy,220,2014-08-21 03:55:00